Time,TemperatureF,DewpointF,PressureIn,WindDirection,WindDirectionDegrees,WindSpeedMPH,WindSpeedGustMPH,Humidity,HourlyPrecipIn,Conditions,Clouds,dailyrainin,SolarRadiationWatts/m^2,SoftwareType,DateUTC
2015-08-29 00:02:00,60.4,56.8,30.18,SSW,200,0.0,4.0,88,0.00,,,0.00,0.0,meteohub,2015-08-29 04:02:00,
2015-08-29 00:07:00,60.3,56.7,30.18,SSW,200,0.0,4.0,88,0.00,,,0.00,0.0,meteohub,2015-08-29 04:07:00,
2015-08-29 00:12:00,60.3,56.7,30.18,SSW,200,0.0,0.0,88,0.00,,,0.00,0.0,meteohub,2015-08-29 04:12:00,
2015-08-29 00:17:00,60.1,56.5,30.17,SSW,200,0.0,0.0,88,0.00,,,0.00,0.0,meteohub,2015-08-29 04:17:00,
2015-08-29 00:22:00,60.1,56.5,30.17,SSW,200,0.0,0.0,88,0.00,,,0.00,0.0,meteohub,2015-08-29 04:22:00,
2015-08-29 00:27:00,59.9,56.3,30.17,SSW,200,0.0,0.0,88,0.00,,,0.00,0.0,meteohub,2015-08-29 04:27:00,
2015-08-29 00:32:00,59.7,56.1,30.17,SSW,200,0.0,0.0,88,0.00,,,0.00,0.0,meteohub,2015-08-29 04:32:00,
2015-08-29 00:37:00,59.7,56.5,30.17,SSW,200,0.0,0.0,89,0.00,,,0.00,0.0,meteohub,2015-08-29 04:37:00,
2015-08-29 00:42:00,59.5,56.3,30.17,SSW,200,0.0,0.0,89,0.00,,,0.00,0.0,meteohub,2015-08-29 04:42:00,
2015-08-29 00:47:00,59.5,56.3,30.17,SSW,200,0.0,0.0,89,0.00,,,0.00,0.0,meteohub,2015-08-29 04:47:00,
2015-08-29 00:52:00,59.4,56.1,30.17,SSW,200,0.0,0.0,89,0.00,,,0.00,0.0,meteohub,2015-08-29 04:52:00,
2015-08-29 00:57:00,59.4,56.1,30.17,SSW,200,0.0,0.0,89,0.00,,,0.00,0.0,meteohub,2015-08-29 04:57:00,
2015-08-29 01:02:00,59.2,55.9,30.17,SSW,200,0.0,0.0,89,0.00,,,0.00,0.0,meteohub,2015-08-29 05:02:00,
2015-08-29 01:07:00,59.0,55.8,30.17,WSW,254,2.0,4.0,89,0.00,,,0.00,0.0,meteohub,2015-08-29 05:07:00,
2015-08-29 01:12:00,58.8,55.6,30.17,WNW,290,0.0,5.0,89,0.00,,,0.00,0.0,meteohub,2015-08-29 05:12:00,
2015-08-29 01:17:00,58.8,55.6,30.16,WNW,290,0.0,5.0,89,0.00,,,0.00,0.0,meteohub,2015-08-29 05:17:00,
2015-08-29 01:22:00,58.6,55.8,30.17,WNW,290,0.0,5.0,90,0.00,,,0.00,0.0,meteohub,2015-08-29 05:22:00,
2015-08-29 01:27:00,58.6,55.8,30.16,WNW,290,0.0,4.0,90,0.00,,,0.00,0.0,meteohub,2015-08-29 05:27:00,
2015-08-29 01:32:00,58.6,55.8,30.16,WNW,290,0.0,0.0,90,0.00,,,0.00,0.0,meteohub,2015-08-29 05:32:00,
2015-08-29 01:37:00,58.5,55.6,30.16,WNW,290,0.0,0.0,90,0.00,,,0.00,0.0,meteohub,2015-08-29 05:37:00,
2015-08-29 01:42:00,58.5,55.6,30.16,WNW,290,0.0,0.0,90,0.00,,,0.00,0.0,meteohub,2015-08-29 05:42:00,
2015-08-29 01:44:00,58.5,55.6,30.16,WNW,290,0.0,0.0,90,0.00,,,0.00,0.0,meteohub,2015-08-29 05:44:00,
2015-08-29 01:50:00,58.3,55.4,30.16,WNW,290,0.0,0.0,90,0.00,,,0.00,0.0,meteohub,2015-08-29 05:50:00,
2015-08-29 01:55:00,58.3,55.4,30.16,WNW,290,0.0,0.0,90,0.00,,,0.00,0.0,meteohub,2015-08-29 05:55:00,
2015-08-29 02:00:00,58.1,55.2,30.16,WNW,290,0.0,0.0,90,0.00,,,0.00,0.0,meteohub,2015-08-29 06:00:00,
2015-08-29 02:05:00,57.9,55.0,30.16,WNW,290,0.0,0.0,90,0.00,,,0.00,0.0,meteohub,2015-08-29 06:05:00,
2015-08-29 02:10:00,57.9,55.2,30.16,WNW,290,0.0,0.0,91,0.00,,,0.00,0.0,meteohub,2015-08-29 06:10:00,
2015-08-29 02:15:00,57.9,55.2,30.16,WNW,290,0.0,0.0,91,0.00,,,0.00,0.0,meteohub,2015-08-29 06:15:00,
2015-08-29 02:20:00,57.7,55.2,30.16,WNW,290,0.0,0.0,91,0.00,,,0.00,0.0,meteohub,2015-08-29 06:20:00,
2015-08-29 02:26:00,57.7,54.9,30.16,WNW,290,0.0,0.0,90,0.00,,,0.00,0.0,meteohub,2015-08-29 06:26:00,
2015-08-29 02:31:00,57.6,54.7,30.16,WNW,290,0.0,0.0,90,0.00,,,0.00,0.0,meteohub,2015-08-29 06:31:00,
2015-08-29 02:36:00,57.6,55.0,30.16,WNW,290,0.0,0.0,91,0.00,,,0.00,0.0,meteohub,2015-08-29 06:36:00,
2015-08-29 02:41:00,57.6,55.0,30.16,WNW,290,0.0,0.0,91,0.00,,,0.00,0.0,meteohub,2015-08-29 06:41:00,
2015-08-29 02:46:00,57.6,55.0,30.16,WNW,290,0.0,0.0,91,0.00,,,0.00,0.0,meteohub,2015-08-29 06:46:00,
2015-08-29 02:51:00,57.4,54.9,30.16,WNW,290,0.0,0.0,91,0.00,,,0.00,0.0,meteohub,2015-08-29 06:51:00,
2015-08-29 02:56:00,57.4,54.9,30.16,WNW,290,0.0,0.0,91,0.00,,,0.00,0.0,meteohub,2015-08-29 06:56:00,
2015-08-29 03:01:00,57.2,54.7,30.17,WNW,290,0.0,0.0,91,0.00,,,0.00,0.0,meteohub,2015-08-29 07:01:00,
2015-08-29 03:07:00,57.0,54.5,30.16,WNW,290,0.0,1.0,91,0.00,,,0.00,0.0,meteohub,2015-08-29 07:07:00,
2015-08-29 03:12:00,56.8,54.3,30.17,WNW,290,0.0,1.0,91,0.00,,,0.00,0.0,meteohub,2015-08-29 07:12:00,
2015-08-29 03:17:00,56.8,54.3,30.17,WNW,290,0.0,1.0,91,0.00,,,0.00,0.0,meteohub,2015-08-29 07:17:00,
2015-08-29 03:22:00,56.8,54.3,30.17,WNW,290,0.0,4.0,91,0.00,,,0.00,0.0,meteohub,2015-08-29 07:22:00,
2015-08-29 03:27:00,56.8,54.3,30.17,WNW,290,0.0,4.0,91,0.00,,,0.00,0.0,meteohub,2015-08-29 07:27:00,
2015-08-29 03:32:00,56.8,54.3,30.17,WNW,290,0.0,4.0,91,0.00,,,0.00,0.0,meteohub,2015-08-29 07:32:00,
2015-08-29 03:37:00,56.7,54.1,30.17,WNW,290,0.0,4.0,91,0.00,,,0.00,0.0,meteohub,2015-08-29 07:37:00,
2015-08-29 03:38:00,56.7,54.1,30.16,WNW,290,0.0,4.0,91,0.00,,,0.00,0.0,meteohub,2015-08-29 07:38:00,
2015-08-29 03:43:00,56.7,54.1,30.17,WNW,290,4.0,4.0,91,0.00,,,0.00,0.0,meteohub,2015-08-29 07:43:00,
2015-08-29 03:48:00,56.5,54.0,30.17,WNW,290,4.0,5.0,91,0.00,,,0.00,0.0,meteohub,2015-08-29 07:48:00,
2015-08-29 03:53:00,56.5,54.1,30.16,WNW,291,2.0,5.0,92,0.00,,,0.00,0.0,meteohub,2015-08-29 07:53:00,
2015-08-29 03:58:00,56.5,54.1,30.16,WNW,292,0.0,5.0,92,0.00,,,0.00,0.0,meteohub,2015-08-29 07:58:00,
2015-08-29 04:03:00,56.3,54.0,30.16,WNW,294,0.0,5.0,92,0.00,,,0.00,0.0,meteohub,2015-08-29 08:03:00,
2015-08-29 04:09:00,56.3,54.0,30.16,WNW,294,0.0,4.0,92,0.00,,,0.00,0.0,meteohub,2015-08-29 08:09:00,
2015-08-29 04:14:00,56.1,53.8,30.16,WNW,294,0.0,0.0,92,0.00,,,0.00,0.0,meteohub,2015-08-29 08:14:00,
2015-08-29 04:19:00,56.1,53.8,30.16,WNW,294,0.0,0.0,92,0.00,,,0.00,0.0,meteohub,2015-08-29 08:19:00,
2015-08-29 04:24:00,56.1,53.8,30.16,WNW,294,0.0,0.0,92,0.00,,,0.00,0.0,meteohub,2015-08-29 08:24:00,
2015-08-29 04:29:00,55.9,53.6,30.16,WNW,294,0.0,0.0,92,0.00,,,0.00,0.0,meteohub,2015-08-29 08:29:00,
2015-08-29 04:34:00,55.9,53.6,30.16,WNW,294,0.0,0.0,92,0.00,,,0.00,0.0,meteohub,2015-08-29 08:34:00,
2015-08-29 04:39:00,55.9,53.6,30.16,WNW,294,0.0,0.0,92,0.00,,,0.00,0.0,meteohub,2015-08-29 08:39:00,
2015-08-29 04:44:00,55.8,53.4,30.16,WNW,294,0.0,0.0,92,0.00,,,0.00,0.0,meteohub,2015-08-29 08:44:00,
2015-08-29 04:50:00,55.8,53.4,30.16,WNW,294,0.0,0.0,92,0.00,,,0.00,0.0,meteohub,2015-08-29 08:50:00,
2015-08-29 04:55:00,55.8,53.4,30.16,WNW,294,0.0,0.0,92,0.00,,,0.00,0.0,meteohub,2015-08-29 08:55:00,
2015-08-29 05:00:00,55.6,53.2,30.16,WNW,294,0.0,0.0,92,0.00,,,0.00,0.0,meteohub,2015-08-29 09:00:00,